Emporia, KS

2:02 PM CDT on March 26, 2017 (GMT -0500)
Emporia Municipal

Weather History for KEMP - July, 2013

Change the Weather History Date:

Thursday, July 11, 2013

  Actual Average Record
Temperature  
Mean Temperature 79 °F 79 °F  
Max Temperature 93 °F 90 °F 100 °F (2011)
Min Temperature 65 °F 68 °F 60 °F (1999)
Degree Days  
Heating Degree Days 0 0  
Month to date heating degree days 0 0  
Since 1 June heating degree days 12 8  
Since 1 July heating degree days 0 0  
Cooling Degree Days 14 14  
Month to date cooling degree days 141 144  
Year to date cooling degree days 556 526  
Since 1 June cooling degree days 440 407  
Growing Degree Days 30 (Base 50)    
Moisture  
Dew Point 61 °F    
Average Humidity 60    
Maximum Humidity 87    
Minimum Humidity 33    
Precipitation  
Precipitation 0.00 in 0.18 in 0.30 in (1997)
Month to date precipitation 0.17 1.86  
Year to date precipitation 14.15 20.38  
Sea Level Pressure  
Sea Level Pressure 30.00 in    
Wind  
Wind Speed 8 mph (ESE)    
Max Wind Speed 17 mph    
Max Gust Speed 22 mph    
Visibility 10 miles    
Events      
T = Trace of Precipitation, MM = Missing Value Source: NWS Daily Summary

Daily Weather History Graph

Daily Weather History Graph

Search for Another Location

Airport or City:

Trip Planner

Search our weather history database for the weather conditions in past years. The results will help you decide how hot, cold, wet, or windy it might be!

Date:

Astronomy

Jul. 11, 2013 Rise Set
Actual Time 6:10 AM CDT 8:49 PM CDT
Civil Twilight 5:39 AM CDT 9:20 PM CDT
Nautical Twilight 5:01 AM CDT 9:59 PM CDT
Astronomical Twilight 4:17 AM CDT 10:42 PM CDT
Moon 9:26 AM CDT (7/11) 10:34 PM CDT (7/11)
Length of Visible Light 15h 40m
Length of Day
14h 38m
Waxing Crescent, 11% of the Moon is Illuminated
Jul 11
Waxing Crescent
Jul 15
First Quarter
Jul 22
Full
Jul 29
Last Quarter
Aug 6
New

Hourly Weather History & Observations

Time (CDT) Temp. Heat Index Dew Point Humidity Pressure Visibility Wind Dir Wind Speed Gust Speed Precip Events Conditions
12:53 AM 71.1 °F - 61.0 °F 70% 30.01 in 10.0 mi ENE 6.9 mph - N/A   Clear
1:53 AM 69.1 °F - 61.0 °F 75% 30.01 in 10.0 mi Calm Calm - N/A   Clear
2:53 AM 70.0 °F - 61.0 °F 73% 30.01 in 10.0 mi ENE 5.8 mph - N/A   Clear
3:53 AM 68.0 °F - 61.0 °F 78% 30.01 in 10.0 mi Calm Calm - N/A   Clear
4:53 AM 66.9 °F - 62.1 °F 84% 30.01 in 10.0 mi East 6.9 mph - N/A   Clear
5:53 AM 66.9 °F - 61.0 °F 81% 30.00 in 10.0 mi East 8.1 mph - N/A   Clear
6:53 AM 66.9 °F - 61.0 °F 81% 30.02 in 10.0 mi East 5.8 mph - N/A   Clear
7:53 AM 73.0 °F - 63.0 °F 71% 30.02 in 10.0 mi East 11.5 mph - N/A   Clear
8:53 AM 77.0 °F - 62.1 °F 60% 30.04 in 10.0 mi ESE 11.5 mph - N/A   Scattered Clouds
9:53 AM 78.1 °F - 63.0 °F 60% 30.04 in 10.0 mi East 10.4 mph - N/A   Mostly Cloudy
10:53 AM 79.0 °F - 63.0 °F 58% 30.09 in 10.0 mi WNW 3.5 mph - N/A   Scattered Clouds
11:53 AM 75.9 °F - 63.0 °F 64% 30.10 in 10.0 mi NW 5.8 mph - N/A   Mostly Cloudy
12:53 PM 77.0 °F - 64.0 °F 64% 30.06 in 10.0 mi West 3.5 mph - N/A   Clear
1:53 PM 84.0 °F 85.8 °F 64.9 °F 53% 29.99 in 10.0 mi East 15.0 mph - N/A   Clear
2:53 PM 91.0 °F 91.9 °F 63.0 °F 39% 29.96 in 10.0 mi ESE 16.1 mph 21.9 mph N/A   Clear
3:53 PM 91.0 °F 90.9 °F 61.0 °F 36% 29.97 in 10.0 mi SSE 9.2 mph - N/A   Clear
4:53 PM 93.0 °F 93.0 °F 61.0 °F 34% 29.96 in 10.0 mi East 12.7 mph 17.3 mph N/A   Clear
5:53 PM 91.0 °F 90.9 °F 61.0 °F 36% 29.94 in 10.0 mi ESE 10.4 mph - N/A   Clear
6:53 PM 89.1 °F 89.3 °F 62.1 °F 40% 29.94 in 10.0 mi East 11.5 mph - N/A   Clear
7:53 PM 86.0 °F 85.7 °F 60.1 °F 41% 29.94 in 10.0 mi ESE 12.7 mph - N/A   Clear
8:53 PM 82.0 °F 82.0 °F 57.9 °F 44% 29.94 in 10.0 mi East 9.2 mph - N/A   Clear
9:53 PM 79.0 °F - 59.0 °F 50% 29.96 in 10.0 mi ESE 8.1 mph - N/A   Mostly Cloudy
10:53 PM 75.9 °F - 59.0 °F 56% 29.98 in 10.0 mi ESE 6.9 mph - N/A   Scattered Clouds
11:53 PM 75.0 °F - 60.1 °F 60% 29.98 in 10.0 mi ESE 8.1 mph - N/A   Clear